This is the latest recevied weather packets stored in our database for station/object EI4HQ. If no packets are shown the sender has not sent any weather packets the latest 1 day(s).
| Time | Temp. | Humidity | Pressure | Rain* | Wind** | Luminosity | Snow |
|---|---|---|---|---|---|---|---|
| 1778008683 | 12.22° C | 67% | 1016.2 hPa | 0 mm | 2.68 m/s, 350° | - | - |
| 1778008143 | 12.22° C | 67% | 1016.1 hPa | 0 mm | 2.68 m/s, 347° | - | - |
| 1778007603 | 12.22° C | 66% | 1016.1 hPa | 0 mm | 2.24 m/s, 344° | - | - |
| 1778007243 | 12.22° C | 66% | 1016 hPa | 0 mm | 1.79 m/s, 348° | - | - |
| 1778006703 | 12.22° C | 66% | 1016.1 hPa | 0 mm | 2.24 m/s, 344° | - | - |
| 1778006163 | 12.78° C | 66% | 1016.3 hPa | 0 mm | 2.24 m/s, 346° | - | - |
| 1778005623 | 12.78° C | 66% | 1016.1 hPa | 0 mm | 2.24 m/s, 344° | - | - |
| 1778005083 | 12.78° C | 65% | 1016.1 hPa | 0 mm | 2.24 m/s, 346° | - | - |
| 1778004543 | 12.78° C | 64% | 1016.1 hPa | 0 mm | 2.24 m/s, 339° | - | - |
| 1778004003 | 13.33° C | 63% | 1016.1 hPa | 0 mm | 2.24 m/s, 345° | - | - |
| 1778003643 | 13.33° C | 63% | 1016.1 hPa | 0 mm | 2.68 m/s, 341° | - | - |
| 1778003103 | 13.33° C | 62% | 1016.2 hPa | 0 mm | 2.24 m/s, 343° | - | - |
| 1778002563 | 13.33° C | 63% | 1016.3 hPa | 0 mm | 1.34 m/s, 339° | - | - |
| 1778002023 | 13.33° C | 63% | 1016.3 hPa | 0 mm | 1.79 m/s, 342° | - | - |
| 1778001483 | 13.33° C | 63% | 1016.3 hPa | 0 mm | 1.79 m/s, 348° | - | - |
| 1778000943 | 13.33° C | 64% | 1016.4 hPa | 0 mm | 1.79 m/s, 343° | - | - |
| 1778000403 | 12.78° C | 65% | 1016.4 hPa | 0 mm | 1.79 m/s, 342° | - | - |
| 1778000043 | 12.78° C | 63% | 1016.4 hPa | 0 mm | 2.68 m/s, 340° | - | - |
| 1777999503 | 12.78° C | 62% | 1016.4 hPa | 0 mm | 2.24 m/s, 346° | - | - |
| 1777998963 | 13.33° C | 62% | 1016.4 hPa | 0 mm | 2.68 m/s, 343° | - | - |
| 1777998423 | 13.33° C | 61% | 1016.5 hPa | 0 mm | 2.24 m/s, 343° | - | - |
| 1777997883 | 13.33° C | 61% | 1016.4 hPa | 0 mm | 0.89 m/s, 340° | - | - |
| 1777997343 | 13.33° C | 59% | 1016.5 hPa | 0 mm | 2.24 m/s, 336° | - | - |
| 1777996803 | 13.33° C | 60% | 1016.5 hPa | 0 mm | 2.68 m/s, 332° | - | - |
| 1777995363 | 13.89° C | 58% | 1016.5 hPa | 0 mm | 2.68 m/s, 336° | - | - |
* Rain latest hour (hover to see other rain measurements)
** Current wind speed in m/s (hover to see current wind gust speed)